Location: Newark
(48.8833°N, 0.9236°W)
Time: 18:15:02
(UTC+00:00)

Transit 4A - Pass Details

Date: 22 November 2019
Orbit: 870 x 975 km, 66.8° (Epoch: 08 December)

Event Time Altitude Azimuth Distance (km) Brightness Sun altitude
Exits shadow 04:02:58 23° 7° (N) 1,815 9.5 -32.4°
Maximum altitude 04:04:39 26° 32° (NNE) 1,682 9.5 -32.1°
Drops below altitude 10° 04:09:29 10° 88° (E) 2,533 11.1 -31.3°
Sets 04:12:23 0° 101° (ESE) 3,460 11.9 -30.9°
